When you browse on this site, cookies collect data to enhance your experience and personalize the content and advertising you see.
Visit our Privacy Policy to learn more. By continuing to use the site, you agree to this use of cookies and data.
EN

Hourly Weather Godzieszki

Today, 20 September, Sunday

Time Temperature Precipitation Wind Pressure Humidity
00:00 +13°C° 0 mm 2 mps 755 mmHg 55%
01:00 +13°C° 0 mm 2 mps 755 mmHg 56%
02:00 +12°C° 0 mm 3 mps 755 mmHg 58%
03:00 +12°C° 0 mm 3 mps 755 mmHg 59%
04:00 +12°C° 0 mm 3 mps 755 mmHg 60%
05:00 +12°C° 0 mm 3 mps 755 mmHg 60%
06:00 +12°C° 0 mm 3 mps 755 mmHg 60%
07:00 +12°C° 0 mm 3 mps 755 mmHg 60%
08:00 +14°C° 0 mm 3 mps 755 mmHg 57%
09:00 +17°C° 0 mm 3 mps 755 mmHg 54%
10:00 +18°C° 0 mm 4 mps 754 mmHg 51%
11:00 +19°C° 0 mm 4 mps 754 mmHg 48%
12:00 +20°C° 0 mm 4 mps 754 mmHg 46%
13:00 +21°C° 0 mm 4 mps 754 mmHg 44%
14:00 +21°C° 0 mm 4 mps 753 mmHg 45%
15:00 +21°C° 0 mm 3 mps 753 mmHg 46%
16:00 +20°C° 0 mm 3 mps 753 mmHg 48%
17:00 +19°C° 0 mm 3 mps 753 mmHg 51%
18:00 +18°C° 0 mm 3 mps 753 mmHg 54%
19:00 +16°C° 0 mm 3 mps 753 mmHg 58%
20:00 +16°C° 0 mm 3 mps 753 mmHg 60%
21:00 +14°C° 0 mm 3 mps 753 mmHg 61%
22:00 +14°C° 0 mm 3 mps 753 mmHg 63%
23:00 +13°C° 0 mm 3 mps 753 mmHg 66%

Tomorrow, 21 September, Monday

Time Temperature Precipitation Wind Pressure Humidity
00:00 +14°C° 0 mm 2 mps 753 mmHg 69%
01:00 +13°C° 0 mm 2 mps 753 mmHg 72%
02:00 +13°C° 0 mm 2 mps 753 mmHg 76%
03:00 +13°C° 0 mm 2 mps 753 mmHg 79%
04:00 +12°C° 0 mm 2 mps 752 mmHg 82%
05:00 +13°C° 0 mm 2 mps 753 mmHg 81%
06:00 +13°C° 0 mm 2 mps 753 mmHg 80%
07:00 +14°C° 0 mm 1 mps 753 mmHg 78%
08:00 +16°C° 0 mm 2 mps 753 mmHg 70%
09:00 +18°C° 0 mm 2 mps 753 mmHg 62%
10:00 +20°C° 0 mm 2 mps 753 mmHg 54%
11:00 +23°C° 0 mm 2 mps 752 mmHg 49%
12:00 +24°C° 0 mm 2 mps 752 mmHg 44%
13:00 +25°C° 0 mm 2 mps 752 mmHg 39%
14:00 +25°C° 0 mm 1 mps 752 mmHg 40%
15:00 +26°C° 0 mm 1 mps 751 mmHg 40%
16:00 +26°C° 0 mm 1 mps 751 mmHg 40%
17:00 +24°C° 0 mm 1 mps 751 mmHg 44%
18:00 +22°C° 0 mm 1 mps 751 mmHg 48%
19:00 +20°C° 0 mm 2 mps 751 mmHg 52%
20:00 +19°C° 0 mm 2 mps 751 mmHg 54%
21:00 +19°C° 0 mm 2 mps 751 mmHg 56%
22:00 +18°C° 0 mm 3 mps 751 mmHg 58%
23:00 +18°C° 0 mm 3 mps 751 mmHg 59%

Day after tomorrow, 22 September, Tuesday

Time Temperature Precipitation Wind Pressure Humidity
00:00 +17°C° 0 mm 2 mps 751 mmHg 60%
01:00 +17°C° 0 mm 2 mps 751 mmHg 60%
02:00 +17°C° 0 mm 3 mps 750 mmHg 62%
03:00 +17°C° 0 mm 3 mps 750 mmHg 63%
04:00 +16°C° 0 mm 3 mps 750 mmHg 64%
05:00 +17°C° 0 mm 3 mps 750 mmHg 63%
06:00 +17°C° 0 mm 3 mps 750 mmHg 61%
07:00 +18°C° 0 mm 3 mps 750 mmHg 60%
08:00 +20°C° 0 mm 4 mps 750 mmHg 53%
09:00 +22°C° 0 mm 5 mps 750 mmHg 46%
10:00 +26°C° 0 mm 6 mps 749 mmHg 39%
11:00 +27°C° 0 mm 6 mps 749 mmHg 37%
12:00 +28°C° 0 mm 6 mps 749 mmHg 35%
13:00 +28°C° 0 mm 6 mps 748 mmHg 33%
14:00 +28°C° 0 mm 6 mps 748 mmHg 36%
15:00 +27°C° 0 mm 5 mps 747 mmHg 38%
16:00 +27°C° 0 mm 4 mps 747 mmHg 41%
17:00 +25°C° 0 mm 4 mps 747 mmHg 44%
18:00 +23°C° 0 mm 4 mps 747 mmHg 47%
19:00 +21°C° 0 mm 3 mps 747 mmHg 50%
20:00 +21°C° 0 mm 3 mps 747 mmHg 51%
21:00 +20°C° 0 mm 3 mps 746 mmHg 52%
22:00 +20°C° 0 mm 3 mps 746 mmHg 53%
23:00 +19°C° 0 mm 3 mps 746 mmHg 53%

23 September, Wednesday

Time Temperature Precipitation Wind Pressure Humidity
00:00 +19°C° 0 mm 3 mps 746 mmHg 53%
01:00 +19°C° 0 mm 3 mps 745 mmHg 53%
02:00 +19°C° 0 mm 4 mps 745 mmHg 53%
03:00 +18°C° 0 mm 4 mps 745 mmHg 54%
04:00 +18°C° 0 mm 4 mps 744 mmHg 54%
05:00 +18°C° 0 mm 4 mps 744 mmHg 54%
06:00 +19°C° 0 mm 4 mps 744 mmHg 54%
07:00 +19°C° 0 mm 4 mps 744 mmHg 54%
08:00 +21°C° 0 mm 5 mps 744 mmHg 52%
09:00 +23°C° 0 mm 6 mps 744 mmHg 50%
10:00 +24°C° 0 mm 6 mps 744 mmHg 48%
11:00 +26°C° 0 mm 6 mps 744 mmHg 48%
12:00 +26°C° 0 mm 6 mps 743 mmHg 48%
13:00 +26°C° 0 mm 6 mps 743 mmHg 48%
14:00 +26°C° 0 mm 5 mps 743 mmHg 50%
15:00 +26°C° 0 mm 4 mps 743 mmHg 52%
16:00 +26°C° 0 mm 3 mps 743 mmHg 53%
17:00 +24°C° 0 mm 3 mps 743 mmHg 58%
18:00 +22°C° 0 mm 3 mps 742 mmHg 62%
19:00 +21°C° 0 mm 3 mps 742 mmHg 66%
20:00 +20°C° 0 mm 2 mps 743 mmHg 70%
21:00 +20°C° 0 mm 2 mps 743 mmHg 74%
22:00 +19°C° 0 mm 2 mps 743 mmHg 77%
23:00 +18°C° 0 mm 2 mps 743 mmHg 80%

24 September, Thursday

Time Temperature Precipitation Wind Pressure Humidity
00:00 +18°C° 0 mm 2 mps 743 mmHg 82%
01:00 +18°C° 0 mm 2 mps 742 mmHg 85%
02:00 +17°C° 0 mm 2 mps 743 mmHg 86%
03:00 +17°C° 0 mm 2 mps 743 mmHg 88%
04:00 +17°C° 0 mm 2 mps 743 mmHg 89%
05:00 +17°C° 0 mm 2 mps 743 mmHg 87%
06:00 +17°C° 0 mm 2 mps 743 mmHg 86%
07:00 +17°C° 0 mm 2 mps 744 mmHg 84%
08:00 +19°C° 0.1 mm 2 mps 744 mmHg 79%
09:00 +20°C° 0.1 mm 3 mps 744 mmHg 75%
10:00 +21°C° 0.1 mm 3 mps 744 mmHg 71%
11:00 +21°C° 0 mm 3 mps 744 mmHg 67%
12:00 +23°C° 0 mm 2 mps 744 mmHg 64%
13:00 +24°C° 0 mm 2 mps 745 mmHg 61%
14:00 +24°C° 0 mm 2 mps 744 mmHg 59%
15:00 +24°C° 0 mm 1 mps 744 mmHg 58%
16:00 +25°C° 0 mm 1 mps 744 mmHg 56%
17:00 +23°C° 0 mm 1 mps 744 mmHg 61%
18:00 +21°C° 0 mm 2 mps 744 mmHg 66%
19:00 +19°C° 0 mm 2 mps 744 mmHg 71%
20:00 +19°C° 0 mm 2 mps 744 mmHg 72%
21:00 +19°C° 0 mm 2 mps 744 mmHg 73%
22:00 +18°C° 0 mm 2 mps 743 mmHg 74%
23:00 +18°C° 0 mm 3 mps 743 mmHg 76%

25 September, Friday

Time Temperature Precipitation Wind Pressure Humidity
00:00 +18°C° 0 mm 3 mps 742 mmHg 77%
01:00 +18°C° 0 mm 3 mps 741 mmHg 78%
02:00 +18°C° 0 mm 4 mps 740 mmHg 77%
03:00 +17°C° 0 mm 5 mps 739 mmHg 75%
04:00 +17°C° 0 mm 5 mps 738 mmHg 74%
05:00 +19°C° 0 mm 6 mps 737 mmHg 71%
06:00 +19°C° 0 mm 6 mps 737 mmHg 69%
07:00 +20°C° 0 mm 7 mps 736 mmHg 67%
08:00 +20°C° 0 mm 7 mps 736 mmHg 65%
09:00 +21°C° 0 mm 8 mps 736 mmHg 64%
10:00 +21°C° 0 mm 9 mps 735 mmHg 63%
11:00 +20°C° 1.8 mm 8 mps 736 mmHg 71%
12:00 +17°C° 1.8 mm 7 mps 736 mmHg 79%
13:00 +15°C° 1.8 mm 7 mps 736 mmHg 87%
14:00 +15°C° 0.2 mm 6 mps 736 mmHg 86%
15:00 +14°C° 0.2 mm 5 mps 737 mmHg 84%
16:00 +13°C° 0.2 mm 5 mps 737 mmHg 83%
17:00 +13°C° 0 mm 4 mps 737 mmHg 84%
18:00 +12°C° 0 mm 3 mps 737 mmHg 85%
19:00 +13°C° 0 mm 2 mps 737 mmHg 86%
20:00 +11°C° 0 mm 3 mps 737 mmHg 86%
21:00 +11°C° 0 mm 3 mps 737 mmHg 86%
22:00 +11°C° 0 mm 3 mps 736 mmHg 85%
23:00 +11°C° 1.7 mm 4 mps 735 mmHg 88%
Show more